ジュエルス-ホルボーセム彗星

C/2002 Y1 ( Juels-Holvorcem )

English version
Home page
Updated on February 8, 2004

---------------------------------------------------------------------

・ プロフィール

発見日 2002年12月28日
発見光度 15.1等
発見者 Charles W. Juels (Fountain Hills, AZ), Paulo R. Holvorcem (Campinas, Brazil)

・ 写真集

・ 軌道要素

Epoch 2003 May 1.0 TT = JDT 2452760.5
T 2003 Apr. 13.24822 TT                                 MPC
q   0.7138080            (2000.0)            P               Q
z  +0.0039720      Peri.  128.81625     +0.65299596     +0.72116859
 +/-0.0000058      Node   166.22059     -0.27258971     -0.06117342
e   0.9971648      Incl.  103.78194     +0.70660536     -0.69005338
>From 730 observations 2002 Dec. 28-2003 Apr. 17, mean residual 0".55.

・ 星図

・ 光度変化

        m1 = -7.0 + 5 logΔ + 70   log r  [   ,-87]  (              〜2003年 1月16日)
        m1 =  6.5 + 5 logΔ + 13.7 log r  [-87,-35]  (2003年 1月16日〜2003年 3月 9日)
        m1 =  6.5 + 5 logΔ +  8.0 log r  [-35, 88]  (2003年 3月 9日〜2003年 7月10日)
        m1 =  2.5 + 5 logΔ + 25   log r  [ 88,125]  (2003年 7月10日〜2003年 8月16日)
        m1 =  6.5 + 5 logΔ + 13.7 log r  [125,   ]  (2003年 8月16日〜              )

        ※ 灰色の曲線は、m1 = 6.5 + 5 logΔ + 13.7 log r の光度曲線です。

---------------------------------------------------------------------

軌道要素はM.P.E.C. 2003-H15に掲載されたものです。
星図は StellaNavigator Ver.2.0 for Windows (アストロアーツ 編著 / アスキー出版局刊) で作成したものです。
光度グラフはComet for Windowsで作成したものです。

---------------------------------------------------------------------

Copyright(C) Seiichi Yoshida (comet@aerith.net). All rights reserved.